Birmingham, United Kingdom

3:09 AM GMT on February 14, 2016 (GMT +0000)
Birmingham

Weather History for EGBB - September, 2013

Change the Weather History Date:

Saturday, September 28, 2013

  Actual Average Record
Temperature  
Mean Temperature 57 °F -  
Max Temperature 66 °F 57 °F 77 °F (2011)
Min Temperature 48 °F 43 °F 39 °F (2008)
Degree Days  
Heating Degree Days 8    
Growing Degree Days 7 (Base 50)    
Moisture  
Dew Point 49 °F    
Average Humidity 76    
Maximum Humidity 100    
Minimum Humidity 48    
Precipitation  
Precipitation 0.00 in 0.07 in - ()
Sea Level Pressure  
Sea Level Pressure 29.84 in    
Wind  
Wind Speed 6 mph ()    
Max Wind Speed 13 mph    
Max Gust Speed -    
Visibility 3.6 miles    
Events      
Averages and records for this station are not official NWS values.
T = Trace of Precipitation, MM = Missing Value Source: Averaged Metar Reports

Daily Weather History Graph

Daily Weather History Graph

Search for Another Location

Airport or City:

Trip Planner

Search our weather history database for the weather conditions in past years. The results will help you decide how hot, cold, wet, or windy it might be!

Date:

Astronomy

Sep. 28, 2013 Rise Set
Actual Time 7:03 AM BST 6:50 PM BST
Civil Twilight 6:29 AM BST 7:24 PM BST
Nautical Twilight 5:49 AM BST 8:04 PM BST
Astronomical Twilight 5:07 AM BST 8:45 PM BST
Moon No Moon Rise 3:38 PM BST (9/28)
Length of Visible Light 12h 55m
Length of Day
11h 47m
Last Quarter, 38% of the Moon is Illuminated
Sep 28
Last Quarter
Oct 5
New
Oct 12
First Quarter
Oct 19
Full
Oct 27
Last Quarter

Hourly Weather History & Observations

Time (BST) Temp. Dew Point Humidity Pressure Visibility Wind Dir Wind Speed Gust Speed Precip Events Conditions
12:20 AM 51.8 °F 48.2 °F 88% 29.92 in - ESE 5.8 mph - N/A   Clear
12:50 AM 51.8 °F 48.2 °F 88% 29.92 in - ESE 6.9 mph - N/A   Clear
1:20 AM 51.8 °F 48.2 °F 88% 29.92 in - East 5.8 mph - N/A   Clear
1:50 AM 51.8 °F 48.2 °F 88% 29.92 in - ENE 5.8 mph - N/A   Clear
2:20 AM 50.0 °F 48.2 °F 94% 29.92 in - NE 4.6 mph - N/A   Clear
2:50 AM 48.2 °F 46.4 °F 93% 29.92 in - NNE 3.5 mph - N/A   Clear
3:20 AM 48.2 °F 48.2 °F 100% 29.89 in 5.0 mi NE 4.6 mph - N/A   Scattered Clouds
3:50 AM 50.0 °F 48.2 °F 94% 29.89 in 5.0 mi NE 5.8 mph - N/A   Mostly Cloudy
4:20 AM 48.2 °F 46.4 °F 93% 29.86 in - NNE 3.5 mph - N/A   Haze
4:50 AM 48.2 °F 46.4 °F 93% 29.86 in 3.7 mi NNE 4.6 mph - N/A   Scattered Clouds
5:20 AM 48.2 °F 48.2 °F 100% 29.86 in 3.1 mi NE 4.6 mph - N/A   Scattered Clouds
5:50 AM 48.2 °F 46.4 °F 93% 29.86 in - NNE 4.6 mph - N/A   Partly Cloudy
6:20 AM 48.2 °F 46.4 °F 93% 29.86 in - NNE 3.5 mph - N/A   Partly Cloudy
6:50 AM 48.2 °F 46.4 °F 93% 29.86 in - NE 4.6 mph - N/A   Scattered Clouds
7:20 AM 48.2 °F 48.2 °F 100% 29.86 in 1.7 mi NE 5.8 mph - N/A   Mostly Cloudy
7:50 AM 50.0 °F 48.2 °F 94% 29.86 in 1.6 mi NE 4.6 mph - N/A   Scattered Clouds
8:20 AM 50.0 °F 50.0 °F 100% 29.86 in 1.3 mi NE 5.8 mph - N/A   Scattered Clouds
8:50 AM 51.8 °F 50.0 °F 94% 29.86 in 1.6 mi ENE 5.8 mph - N/A   Haze
9:20 AM 53.6 °F 51.8 °F 94% 29.86 in - East 6.9 mph - N/A   Mostly Cloudy
9:50 AM 55.4 °F 51.8 °F 88% 29.86 in 3.1 mi ENE 8.1 mph - N/A   Partly Cloudy
10:20 AM 57.2 °F 51.8 °F 82% 29.86 in 4.3 mi ENE 9.2 mph - N/A   Partly Cloudy
10:50 AM 59.0 °F 53.6 °F 82% 29.86 in 5.0 mi ENE 10.4 mph - N/A   Unknown
11:20 AM 60.8 °F 51.8 °F 72% 29.83 in 5.6 mi East 10.4 mph - N/A   Unknown
11:50 AM 62.6 °F 51.8 °F 68% 29.83 in - East 9.2 mph - N/A   Clear
12:20 PM 64.4 °F 50.0 °F 59% 29.83 in - ENE 10.4 mph - N/A   Clear
12:50 PM 64.4 °F 50.0 °F 59% 29.83 in - East 9.2 mph - N/A   Clear
1:20 PM 66.2 °F 50.0 °F 56% 29.83 in - East 9.2 mph - N/A   Clear
1:50 PM 64.4 °F 50.0 °F 59% 29.80 in - East 9.2 mph - N/A   Clear
2:20 PM 66.2 °F 50.0 °F 56% 29.80 in - East 9.2 mph - N/A   Clear
2:50 PM 66.2 °F 50.0 °F 56% 29.80 in - East 9.2 mph - N/A   Clear
3:20 PM 66.2 °F 50.0 °F 56% 29.80 in - ESE 10.4 mph - N/A   Clear
3:50 PM 66.2 °F 50.0 °F 56% 29.80 in - East 9.2 mph - N/A   Clear
4:20 PM 66.2 °F 51.8 °F 60% 29.80 in - East 8.1 mph - N/A   Clear
4:50 PM 66.2 °F 51.8 °F 60% 29.77 in - East 6.9 mph - N/A   Clear
5:20 PM 64.4 °F 51.8 °F 64% 29.77 in - ENE 8.1 mph - N/A   Clear
5:50 PM 64.4 °F 53.6 °F 68% 29.77 in - ENE 8.1 mph - N/A   Clear
6:20 PM 64.4 °F 53.6 °F 68% 29.77 in - ENE 6.9 mph - N/A   Clear
6:50 PM 62.6 °F 53.6 °F 72% 29.77 in - East 4.6 mph - N/A   Clear
7:20 PM 62.6 °F 51.8 °F 68% 29.77 in - East 9.2 mph - N/A   Clear
7:50 PM 62.6 °F 46.4 °F 55% 29.80 in - East 10.4 mph - N/A   Clear
8:20 PM 60.8 °F 42.8 °F 52% 29.80 in - East 11.5 mph - N/A   Clear
8:50 PM 60.8 °F 41.0 °F 48% 29.80 in - East 11.5 mph - N/A   Clear
9:20 PM 59.0 °F 42.8 °F 55% 29.80 in - East 12.7 mph - N/A   Clear
9:50 PM 57.2 °F 44.6 °F 63% 29.80 in - ENE 12.7 mph - N/A   Clear
10:20 PM 57.2 °F 46.4 °F 67% 29.80 in - East 10.4 mph - N/A   Clear
10:50 PM 57.2 °F 46.4 °F 67% 29.83 in - ENE 10.4 mph - N/A   Clear
11:20 PM 55.4 °F 48.2 °F 77% 29.83 in - ENE 9.2 mph - N/A   Clear
11:50 PM 55.4 °F 48.2 °F 77% 29.80 in 6.2 mi NE 8.1 mph - N/A   Unknown